This demonstration page uses our WeatherBlox Daily Observations layout. Learn more.

Left ArrowRight Arrow

Hourly Observations for September 11, 2021

Temp ( °F °C ) Dew Point ( °F °C ) Humidity (%) Winds ( mph kmh ) Pressure ( in mb ) Visibility ( mi km ) Precip ( " mm )
12:51 am 00:51 Clear 70 21.1 54 12.2 57 57 W 5 7 29.90 1013 10 16 N/A
1:51 am 01:51 Clear 68 20 53 11.7 59 59 N N/A 29.90 1013 10 16 N/A
2:51 am 02:51 Clear 66 18.9 54 12.2 65 65 NNE 3 6 29.90 1012 10 16 N/A
3:51 am 03:51 Clear 67 19.4 52 11.1 59 59 NNW 7 11 29.91 1013 10 16 N/A
4:51 am 04:51 Clear 66 18.9 51 10.6 59 59 N N/A 29.92 1013 10 16 N/A
5:51 am 05:51 Clear 63 17.2 53 11.7 70 70 N N/A 29.95 1014 10 16 N/A
6:51 am 06:51 Sunny 68 20 53 11.7 59 59 N N/A 29.98 1015 10 16 N/A
7:51 am 07:51 Sunny 73 22.8 52 11.1 48 48 SW 3 6 29.99 1016 10 16 N/A
8:51 am 08:51 Sunny 79 26.1 52 11.1 39 39 N N/A 29.99 1016 10 16 N/A
9:51 am 09:51 Sunny 84 28.9 54 12.2 36 36 VRB 3 6 30.00 1016 10 16 N/A
10:51 am 10:51 Sunny 89 31.7 53 11.7 29 29 NNW 5 7 29.97 1015 10 16 N/A
11:51 am 11:51 Sunny 94 34.4 52 11.1 24 24 ENE 3 6 29.93 1014 10 16 N/A
12:51 pm 12:51 Sunny 95 35 52 11.1 23 23 VRB 3 6 29.91 1013 10 16 N/A
1:51 pm 13:51 Sunny 96 35.6 46 7.8 18 18 N N/A 29.87 1012 10 16 N/A
2:51 pm 14:51 Sunny 98 36.7 45 7.2 16 16 N N/A 29.84 1011 10 16 N/A
3:51 pm 15:51 Sunny 98 36.7 43 6.1 15 15 VRB 3 6 29.83 1010 10 16 N/A
4:51 pm 16:51 Sunny 97 36.1 44 6.7 16 16 W 6 9 29.82 1010 10 16 N/A
5:51 pm 17:51 Sunny 92 33.3 46 7.8 21 21 WSW 5 7 29.83 1010 10 16 N/A
6:51 pm 18:51 undefined 84 28.9 53 11.7 34 34 NNW 3 6 29.84 1010 10 16 N/A
7:51 pm 19:51 Clear 80 26.7 50 10 35 35 N 7 11 29.85 1011 10 16 N/A
8:51 pm 20:51 Clear 77 25 51 10.6 40 40 NNE 6 9 29.86 1011 10 16 N/A
9:51 pm 21:51 Clear 75 23.9 51 10.6 43 43 N N/A 29.86 1011 10 16 N/A
10:51 pm 22:51 Clear 73 22.8 51 10.6 46 46 ENE 6 9 29.86 1011 10 16 N/A
11:51 pm 23:51 Clear 70 21.1 52 11.1 53 53 ENE 6 9 29.85 1011 10 16 N/A

Powered by AerisWeather